Weather in Topily

Russia / Ryazan Oblast     53°44′32″N   39°20′16″E
temp.,
°C
wind,
m/s
gust,
m/s
humid.,
%
clouds,
%
prec.,
mm/h
press.,
hPa
HPBL,
m
27 february, sat
sat2700:00+1w7159160 0.0 1005605
03:000w8159067 0.0 1005586
06:00+1wnw8159283 0.0 1003870
09:00+1wnw9159788 0.1 1004881
12:00−1nnw9168599 0.2 1006823
15:00−6nnw7128777 0.2 1009572
18:00−7nnw489499 0.0 1011211
21:00−8nnw349693 0.0 101374
28 february, sun
sun2800:00−7nw379699 0.1 1014241
03:00−9nw489686 0.1 1015174
06:00−9nw349684 0.0 101587
09:00−7nw249681 0.1 1015126
12:00−4nnw249390 0.1 1015302
15:00−2nnw359292 0.1 1015447
18:00−4n359493 0.0 1016182
21:00−4nne259596 0.1 1019167
1 march, mon
mon100:00−5ne2297100 0.1 102072
03:00−5n1195100 0.1 102321
06:00−8nnw239696 0.0 102422
09:00−7nw129691 0.1 102534
12:00−4w239564 0.0 1025242
15:00−3wsw479474 0.0 1025366
18:00−2w599299 0.0 1023451
21:00−3wsw6129599 0.1 1022408
2 march, tue
tue200:00−1wsw61293100 0.0 1018552
03:000wsw81497100 0.4 1015556
06:00+1w81495100 0.1 1011807
09:00+1wnw81498100 0.3 1010885
12:00+1nw8148892 0.1 1010986
15:00+1nw7138588 0.3 10111028
18:00−1nw6148863 0.1 1012617
21:00−2nw6138979 0.1 1013480
3 march, wed
wed300:00−3nw6148887 0.0 1013536
03:00−3nw6139393 0.1 1013552
06:00−4nw6129496 0.1 1014568
09:00−4nnw8148998 0.4 1016777
12:00−3nnw7118695 0.0 1017786
15:00−2nw6109275 0.1 1018886
18:00−3nw5129198 0.4 1019554
21:00−6nw5118959 0.4 1021281